[[{"header":{"parameterUnit":"m.s-1","parameterCategory":1,"la1":30.2991,"la2":30.254,"lo1":-89.0895,"lo2":-89.0444,"dy":0.0017,"dx":0.0017,"nx":28,"ny":28,"refTime":"2025-06-08T09:00:00:Z","depth":0,"parameterNumber":2,"parameterNumberName":"U-component_of_WINDS"},"data":[0,0,0,0,0,0,0,0,0,0,0,0,0,0,0,0,0,0,0,0,0,0,0,0,0,0,0,0,0,0,0,0,0,0,0,0,0,0,0,0,0,0,0,0,0,0,0,0,0,0,0,0,0,0,0,0,0,0,5.9429,5.9431,0,5.9635,5.9637,5.964,5.9614,5.9611,5.9608,5.9605,5.9815,5.9823,5.9832,0,0,0,0,0,0,0,0,0,0,0,0,0,5.9009,5.9017,5.9428,5.9431,5.9434,5.9634,5.9637,5.964,5.9615,5.9611,5.9607,5.9603,5.9812,5.9822,5.9833,0,0,0,0,0,0,0,0,0,0,0,0,0,5.9201,5.902,5.9428,5.9445,5.9449,5.9634,5.9637,5.9641,5.9616,5.9611,5.9606,5.9601,5.9809,5.9821,5.9834,6.0015,0,0,5.9874,5.988,0,0,0,0,0,0,0,0,5.919,5.9216,5.944,5.9445,5.9449,5.9594,5.9566,5.9766,5.9617,5.9553,5.9605,5.9599,5.9745,5.9763,5.9813,6.0025,6.0034,5.9875,5.9883,5.9889,5.9892,0,0,0,0,0,0,0,5.9177,5.9207,5.951,5.9443,5.9449,5.9442,5.9463,5.9604,5.9674,5.9558,5.9556,5.9581,5.9747,5.98,5.9818,6.0037,5.9875,5.9886,5.9894,5.99,6.0401,6.0406,0,0,0,0,0,0,5.916,5.9196,5.9504,5.9516,5.9305,5.9453,5.9477,5.9552,5.9673,5.9686,5.9585,5.9579,5.978,5.9802,5.9825,6.004,5.9889,5.9901,5.9908,6.0396,6.0402,6.0408,0,0,0,0,0,0,5.9151,5.9187,5.9495,5.9356,5.9395,5.9466,5.955,5.9559,5.9613,5.9694,5.9706,5.9627,5.9777,5.9806,5.9966,6.0047,5.9907,5.9919,6.0389,6.0398,6.0405,6.0474,0,0,0,0,0,0,5.9139,5.9184,5.9255,5.9358,5.9402,5.9635,5.9555,5.9567,5.9635,5.9629,5.9736,5.9749,5.9776,5.9947,5.9979,6.0062,5.9929,6.0382,6.0393,6.0403,6.0465,6.0484,6.05,0,0,0,0,0,5.9124,5.9267,5.9258,5.9296,5.9492,5.964,5.9665,5.9693,5.9642,5.9712,5.9763,5.9746,6.0034,5.9964,6.0,6.0088,6.0377,6.039,6.0402,6.0457,6.048,6.0499,0,0,0,0,0,0,5.9172,5.9281,5.9273,5.9453,5.9537,5.9635,5.9725,5.9717,5.9817,5.9807,5.9837,5.9861,6.0022,6.0072,5.9992,6.0266,6.0198,6.0218,6.0228,6.025,6.0267,6.025,5.994,0,0,0,0,0,5.9203,5.9315,5.9404,5.9555,5.9597,5.9654,5.9719,5.9733,5.9821,5.9856,5.992,6.0005,6.0114,6.0185,6.0291,6.0473,6.0493,6.0551,6.0568,6.0582,6.0598,6.0693,6.0718,6.0449,6.0449,6.0449,0,0,5.9269,5.9343,5.9412,5.9566,5.9632,5.9745,5.9684,5.9807,5.989,5.9875,6.0028,6.0078,6.0175,6.0345,6.0424,6.0392,6.0677,6.0598,6.0608,6.0617,6.0708,6.0734,6.0756,6.0457,6.0456,6.0454,0,0,5.9447,5.9516,5.9646,5.9714,5.9815,5.9851,5.9882,5.9981,6.0013,6.0168,6.0157,6.0256,6.0445,6.0513,6.0573,6.0772,6.0758,6.0806,6.0896,6.0988,6.1009,6.1028,6.1095,6.1119,6.0823,6.0823,6.0823,0,5.9516,5.9687,5.9714,5.9838,5.9904,5.9895,6.0026,6.009,6.0221,6.0266,6.0228,6.0462,6.0527,6.0711,6.0759,6.0809,6.0843,6.0793,6.1004,6.1023,6.1041,6.1105,6.1131,6.0828,6.0827,6.0827,6.0826,0,5.9764,5.9882,5.9976,6.01,6.0178,6.0305,6.0349,6.0424,6.0431,6.047,6.0626,6.0703,6.0822,6.0867,6.0876,6.1051,6.1028,6.0998,6.0929,6.1071,6.1131,6.1157,6.0835,6.0833,6.0831,6.083,0,0,5.9977,6.0114,6.0147,6.0202,6.0312,6.0403,6.0528,6.0643,6.0704,6.0795,6.0897,6.1056,6.1027,6.1094,6.1111,6.1192,6.1339,6.1151,6.1154,6.1179,6.1532,6.1551,6.1579,6.1332,6.1336,6.134,6.1522,0,6.0162,6.0383,6.041,6.0605,6.0712,6.0704,6.0812,6.089,6.093,6.1025,6.1069,6.1179,6.1135,6.1175,6.1255,6.1304,6.141,6.1292,6.1424,6.1429,6.1396,6.1611,6.1633,6.1801,6.1546,6.155,6.1553,0,6.0407,6.0502,6.0708,6.0798,6.0844,6.0941,6.1047,6.114,6.1226,6.1249,6.1323,6.1328,6.1454,6.1382,6.1554,6.1474,6.153,6.1561,6.1569,6.1579,6.1497,6.1623,6.1855,6.1879,6.1592,6.1589,6.1586,0,6.0536,6.0716,6.0861,6.0908,6.1019,6.1087,6.1136,6.1218,6.1284,6.1377,6.1419,6.1526,6.1583,6.1665,6.1697,6.1643,6.1866,6.1798,6.1885,6.1884,6.193,6.1926,6.217,6.1973,6.1973,6.1972,6.1972,0,6.0737,6.0862,6.0919,6.1008,6.1146,6.1176,6.1312,6.1358,6.1431,6.1527,6.1528,6.1617,6.1656,6.1752,6.1778,6.1914,6.1941,6.1961,6.1965,6.1959,6.1955,6.1993,6.198,6.1979,6.1978,6.1976,6.1975,0,6.0904,6.0948,6.1104,6.1196,6.1221,6.1319,6.1396,6.1481,6.1519,6.164,6.167,6.173,6.1842,6.1883,6.202,6.2037,6.2193,6.219,6.2163,6.2163,6.2246,6.2236,6.2519,6.2556,6.2339,6.2341,6.2343,0,6.1027,6.1123,6.1224,6.1288,6.1339,6.1443,6.151,6.1542,6.1611,6.1715,6.1786,6.1898,6.1988,6.2166,6.2221,6.2324,6.2321,6.2414,6.2337,6.2325,6.2317,6.2309,6.2317,6.2427,6.2429,6.2431,6.2432,0,6.124,6.1256,6.1353,6.1457,6.1536,6.162,6.17,6.1752,6.1796,6.1874,6.1987,6.2057,6.2195,6.2304,6.2409,6.2458,6.2452,6.2456,6.2481,6.2473,6.2451,6.2459,6.2197,6.2449,6.2447,6.2446,6.2445,6.2444,6.1386,6.1469,6.1551,6.1658,6.1722,6.1796,6.1878,6.1926,6.2022,6.2136,6.2149,6.227,6.2351,6.2492,6.2546,6.2639,6.2614,6.2651,6.266,6.2667,6.2671,6.2439,6.2659,6.2659,6.2659,6.2658,6.2658,0,6.1595,6.1647,6.1745,6.1857,6.1939,6.1927,6.2014,6.2084,6.219,6.2267,6.2355,6.2483,6.2588,6.265,6.2755,6.2817,6.2816,6.2843,6.2837,6.2847,6.269,6.2656,6.2842,6.2842,6.2842,6.2842,6.2842,6.2842,6.1713,6.185,6.1876,6.2043,6.2095,6.2213,6.2263,6.2331,6.2391,6.2535,6.2621,6.2661,6.2731,6.284,6.2934,6.295,6.2986,6.3014,6.3027,6.2878,6.2859,6.2841,6.2808,6.3023,6.3024,6.3175,6.3177,6.3178]},{"header":{"parameterUnit":"m.s-1","parameterCategory":1,"la1":30.2991,"la2":30.254,"lo1":-89.0895,"lo2":-89.0444,"dy":0.0017,"dx":0.0017,"nx":28,"ny":28,"refTime":"2025-06-08T09:00:00:Z","depth":0,"parameterNumber":3,"parameterNumberName":"V-component_of_WINDS"},"data":[0,0,0,0,0,0,0,0,0,0,0,0,0,0,0,0,0,0,0,0,0,0,0,0,0,0,0,0,0,0,0,0,0,0,0,0,0,0,0,0,0,0,0,0,0,0,0,0,0,0,0,0,0,0,0,0,0,0,2.6891,2.6892,0,2.7015,2.7016,2.7017,2.7002,2.7,2.6998,2.6997,2.7125,2.713,2.7135,0,0,0,0,0,0,0,0,0,0,0,0,0,2.6641,2.6646,2.6891,2.6892,2.6894,2.7014,2.7016,2.7018,2.7003,2.7,2.6998,2.6996,2.7123,2.713,2.7136,0,0,0,0,0,0,0,0,0,0,0,0,0,2.6756,2.6648,2.689,2.6901,2.6903,2.7014,2.7016,2.7018,2.7003,2.7,2.6997,2.6995,2.7121,2.7129,2.7137,2.7246,0,0,2.7161,2.7164,0,0,0,0,0,0,0,0,2.6749,2.6765,2.6898,2.69,2.6903,2.699,2.6975,2.7095,2.7004,2.6965,2.6997,2.6993,2.7083,2.7094,2.7123,2.7252,2.7257,2.7162,2.7167,2.717,2.7172,0,0,0,0,0,0,0,2.6742,2.676,2.694,2.69,2.6903,2.6899,2.6912,2.6998,2.7039,2.6968,2.6968,2.6982,2.7083,2.7116,2.7126,2.7259,2.7161,2.7169,2.7173,2.7177,2.7481,2.7485,0,0,0,0,0,0,2.6731,2.6753,2.6936,2.6943,2.6817,2.6906,2.6921,2.6965,2.7038,2.7047,2.6985,2.6981,2.7104,2.7117,2.7131,2.7262,2.717,2.7177,2.7182,2.7478,2.7482,2.7486,0,0,0,0,0,0,2.6726,2.6747,2.6931,2.6848,2.6871,2.6914,2.6964,2.6969,2.7001,2.7051,2.7058,2.701,2.7102,2.712,2.7217,2.7266,2.7181,2.7188,2.7474,2.7479,2.7484,2.7527,0,0,0,0,0,0,2.6718,2.6745,2.6788,2.6849,2.6876,2.7015,2.6967,2.6974,2.7015,2.7011,2.7077,2.7084,2.7101,2.7205,2.7225,2.7276,2.7194,2.747,2.7476,2.7482,2.7521,2.7532,2.7542,0,0,0,0,0,2.671,2.6795,2.679,2.6812,2.6929,2.7018,2.7033,2.705,2.7019,2.7061,2.7093,2.7082,2.7258,2.7215,2.7237,2.7291,2.7467,2.7475,2.7482,2.7516,2.753,2.7542,0,0,0,0,0,0,2.674,2.6804,2.6798,2.6906,2.6957,2.7015,2.7069,2.7064,2.7125,2.7119,2.7137,2.7152,2.725,2.7281,2.7232,2.74,2.7358,2.737,2.7377,2.739,2.7401,2.7392,2.7201,0,0,0,0,0,2.6758,2.6825,2.6878,2.6968,2.6993,2.7027,2.7066,2.7074,2.7127,2.7149,2.7187,2.724,2.7306,2.735,2.7414,2.7525,2.7538,2.7573,2.7584,2.7592,2.7603,2.7662,2.7678,2.751,2.751,2.751,0,0,2.6799,2.6842,2.6883,2.6975,2.7015,2.7083,2.7045,2.7119,2.717,2.716,2.7254,2.7284,2.7343,2.7447,2.7495,2.7476,2.7652,2.7602,2.7608,2.7614,2.7671,2.7687,2.7701,2.7516,2.7515,2.7514,0,0,2.6907,2.6947,2.7026,2.7066,2.7126,2.7148,2.7167,2.7226,2.7245,2.7339,2.7333,2.7393,2.7508,2.755,2.7586,2.7708,2.7701,2.7729,2.7784,2.7842,2.7855,2.7867,2.791,2.7925,2.7739,2.7739,2.7739,0,2.695,2.7052,2.7067,2.7142,2.7182,2.7175,2.7254,2.7293,2.7372,2.7399,2.7376,2.7519,2.7558,2.7671,2.7701,2.7731,2.7752,2.7722,2.7852,2.7864,2.7875,2.7916,2.7932,2.7742,2.7741,2.7741,2.7741,0,2.7101,2.7172,2.7229,2.7303,2.735,2.7427,2.7453,2.7498,2.7502,2.7525,2.7621,2.7667,2.774,2.7768,2.7773,2.7881,2.7867,2.7848,2.7806,2.7894,2.7933,2.7949,2.7746,2.7745,2.7744,2.7743,0,0,2.7233,2.7314,2.7334,2.7367,2.7432,2.7488,2.7563,2.7634,2.7672,2.7726,2.7789,2.7886,2.7868,2.7909,2.7918,2.7969,2.8061,2.7944,2.7945,2.7963,2.8183,2.8196,2.8214,2.8056,2.8059,2.8062,2.8177,0,2.7347,2.7481,2.7496,2.7615,2.7681,2.7674,2.774,2.7787,2.7811,2.7869,2.7896,2.7963,2.7935,2.7959,2.8009,2.8039,2.8105,2.8031,2.8116,2.8119,2.8101,2.8235,2.825,2.8357,2.8193,2.8195,2.8197,0,2.7499,2.7556,2.7681,2.7736,2.7764,2.7823,2.7887,2.7944,2.7996,2.801,2.8055,2.8057,2.8135,2.809,2.8197,2.8146,2.8181,2.8201,2.8206,2.8214,2.8163,2.8247,2.8392,2.8408,2.8221,2.8219,2.8218,0,2.7582,2.769,2.7778,2.7807,2.7873,2.7914,2.7944,2.7994,2.8034,2.8091,2.8117,2.8182,2.8218,2.8268,2.8288,2.8253,2.8394,2.8351,2.8407,2.8407,2.8438,2.8435,2.859,2.846,2.846,2.846,2.8459,0,2.7708,2.7785,2.7816,2.7871,2.7956,2.7972,2.8057,2.8084,2.8128,2.8188,2.8186,2.8242,2.8264,2.8324,2.834,2.8425,2.8442,2.8455,2.8458,2.8455,2.8453,2.8479,2.8472,2.8464,2.8463,2.8462,2.8462,0,2.7815,2.7839,2.7935,2.7989,2.8004,2.8065,2.8111,2.8164,2.8186,2.8261,2.828,2.8315,2.8385,2.8409,2.8494,2.8504,2.8604,2.8601,2.8586,2.8587,2.8642,2.8636,2.8818,2.8843,2.8697,2.8698,2.8699,0,2.7894,2.7952,2.8012,2.8051,2.8082,2.8146,2.8187,2.8204,2.8247,2.831,2.8355,2.8424,2.848,2.8592,2.8625,2.869,2.8688,2.8747,2.8698,2.8692,2.8688,2.8685,2.869,2.8757,2.8758,2.8759,2.876,0,2.803,2.8039,2.8098,2.8161,2.821,2.826,2.8309,2.8342,2.8366,2.8414,2.8485,2.8528,2.8614,2.8683,2.8748,2.8779,2.8774,2.8775,2.8792,2.879,2.8778,2.8784,2.8611,2.8771,2.877,2.877,2.8769,2.8769,2.8126,2.8177,2.8226,2.8292,2.833,2.8375,2.8427,2.8455,2.8514,2.8585,2.8591,2.8667,2.8717,2.8805,2.8838,2.8897,2.8881,2.8905,2.8911,2.8917,2.892,2.8768,2.8909,2.8909,2.8909,2.8909,2.8908,0,2.8262,2.8293,2.8353,2.842,2.8472,2.8461,2.8515,2.8558,2.8625,2.8671,2.8726,2.8807,2.8873,2.891,2.8976,2.9016,2.9016,2.9033,2.903,2.9037,2.8932,2.8911,2.9032,2.9032,2.9032,2.9032,2.9032,2.9032,2.8339,2.8424,2.8439,2.8543,2.8574,2.8648,2.8679,2.8721,2.8757,2.8847,2.8902,2.8925,2.8968,2.9037,2.9096,2.9106,2.913,2.9149,2.9157,2.9058,2.9045,2.9033,2.9013,2.9154,2.9154,2.9257,2.9258,2.9259]}]]